Location: C.E.K. Mees Observatory
(42.7003°N, 77.4088°W)
Time: 12:28:45
(UTC-04:00)

Vanguard 3 - Pass Details

Date: 30 June 2018
Orbit: 508 x 3264 km, 33.3° (Epoch: 20 September)

Event Time Altitude Azimuth Distance (km) Brightness Sun altitude
Rises 05:38:35 0° 259° (W) 3,080 9.5 -0.3°
Reaches altitude 10° 05:40:58 10° 244° (WSW) 2,393 8.9 0.1°
Maximum altitude 05:45:30 25° 191° (S) 2,021 8.9 0.8°
Drops below altitude 10° 05:52:12 10° 141° (SE) 3,671 10.6 1.9°
Sets 05:56:56 0° 131° (SE) 5,197 11.5 2.6°
